DW4338 Weather Reports


time (UTC)temp
C
wind
direction
speed
KPH
gust
KPH
rain 1hr
cm
rain 24hr
cm
rain mn
cm
humidity
%
barometer
mb
20260507134523 8 226 8.0 0.0 0.00 0.00 0.15 63 1016.0
20260507133022 8 256 6.4 0.0 0.00 0.00 0.15 63 1016.1
20260507131522 8 246 8.0 0.0 0.00 0.00 0.15 64 1016.1
20260507130026 8 271 6.4 0.0 0.00 0.00 0.15 65 1016.1
20260507124524 9 228 8.0 0.0 0.00 0.00 0.15 64 1016.1
20260507123016 8 243 8.0 0.0 0.00 0.00 0.15 65 1016.2
20260507121513 8 226 8.0 0.0 0.00 0.00 0.15 65 1016.4
20260507120012 8 256 9.7 0.0 0.00 0.00 0.15 65 1016.1
20260507114512 9 229 8.0 0.0 0.00 0.00 0.15 65 1016.3
20260507113016 9 208 6.4 0.0 0.00 0.00 0.15 65 1016.4
20260507111515 9 206 6.4 0.0 0.00 0.00 0.15 64 1016.3
20260507110023 7 209 6.4 0.0 0.00 0.00 0.15 67 1016.5
20260507104508 7 202 6.4 0.0 0.00 0.00 0.15 66 1016.2
20260507103007 7 196 8.0 0.0 0.00 0.00 0.15 68 1016.1
20260507101507 7 232 9.7 0.0 0.00 0.00 0.15 71 1016.1
20260507100009 7 223 11.3 0.0 0.00 0.00 0.15 72 1016.1
20260507094505 8 221 8.0 0.0 0.00 0.00 0.15 67 1016.1
20260507093003 8 165 4.8 0.0 0.00 0.00 0.15 65 1016.0
20260507091501 7 165 4.8 0.0 0.00 0.00 0.15 65 1016.0
20260507090106 7 169 3.2 0.0 0.00 0.00 0.15 67 1016.0
20260507084559 7 170 4.8 0.0 0.00 0.00 0.15 68 1016.0
20260507083059 7 165 4.8 0.0 0.00 0.00 0.15 69 1015.8
20260507081558 7 155 4.8 0.0 0.00 0.00 0.15 67 1015.6
20260507074607 7 150 3.2 0.0 0.00 0.00 0.15 70 1015.5
20260507073050 6 144 4.8 0.0 0.00 0.00 0.15 74 1015.5
20260507071551 6 144 6.4 0.0 0.00 0.00 0.15 75 1015.5
20260507070104 6 129 6.4 0.0 0.00 0.00 0.15 76 1015.5
20260507064544 5 126 6.4 0.0 0.00 0.00 0.15 77 1015.4
20260507063053 5 126 6.4 0.0 0.00 0.00 0.15 79 1015.3
20260507061546 5 119 4.8 0.0 0.00 0.00 0.15 82 1015.2
20260507060044 5 119 6.4 0.0 0.00 0.00 0.15 82 1015.1
20260507054542 4 118 4.8 0.0 0.00 0.00 0.15 84 1015.0
20260507053039 3 118 4.8 0.0 0.00 0.00 0.15 85 1015.0
20260507051536 3 118 3.2 0.0 0.00 0.00 0.15 86 1015.0
20260507050037 3 118 4.8 0.0 0.00 0.00 0.15 87 1014.9
20260507044534 3 119 4.8 0.0 0.00 0.00 0.15 87 1014.7
20260507043032 3 118 4.8 0.0 0.00 0.00 0.15 88 1014.6
20260507041531 3 117 4.8 0.0 0.00 0.00 0.15 89 1014.5
20260507040031 3 117 6.4 0.0 0.00 0.00 0.15 89 1014.5
20260507034535 3 112 4.8 0.0 0.00 0.00 0.15 89 1014.5
20260507033030 3 112 4.8 0.0 0.00 0.00 0.15 89 1014.5
20260507031529 3 112 4.8 0.0 0.00 0.00 0.15 89 1014.5
20260507030030 3 112 3.2 0.0 0.00 0.00 0.15 89 1014.4
20260507024528 3 112 3.2 0.0 0.00 0.00 0.15 89 1014.4
20260507023027 3 112 4.8 0.0 0.00 0.00 0.15 89 1014.4
20260507021529 3 111 6.4 0.0 0.00 0.00 0.15 89 1014.3
20260507020037 3 113 6.4 0.0 0.00 0.00 0.15 89 1014.1
20260507014525 3 114 6.4 0.0 0.00 0.00 0.15 89 1014.1
20260507013040 3 96 4.8 0.0 0.00 0.00 0.15 89 1014.1
20260507011524 3 96 4.8 0.0 0.00 0.00 0.15 89 1014.0
20260507010028 2 98 4.8 0.0 0.00 0.00 0.15 89 1014.0
20260507004524 2 92 4.8 0.0 0.00 0.00 0.15 89 1014.0
20260507003022 2 91 4.8 0.0 0.00 0.00 0.13 88 1014.0
20260507001528 2 360 3.2 0.0 0.00 0.00 0.13 88 1014.0
20260507000020 2 333 3.2 0.0 0.00 0.00 0.05 87 1014.1
20260506234528 2 333 4.8 0.0 0.00 0.00 0.05 85 1014.0
20260506233015 3 35 4.8 0.0 0.00 0.00 0.00 84 1014.0
20260506231515 3 16 3.2 0.0 0.00 0.00 0.00 84 1014.0
20260506230014 3 16 1.6 0.0 0.00 0.00 0.00 83 1014.0
20260506224513 3 16 6.4 0.0 0.00 0.00 0.00 82 1014.0
20260506223010 3 30 4.8 0.0 0.00 0.00 0.00 81 1013.9
20260506221508 3 201 3.2 0.0 0.00 0.00 0.00 79 1014.0
20260506220010 3 201 0.0 0.0 0.00 0.00 0.08 79 1013.9
20260506214504 3 201 3.2 0.0 0.00 0.00 0.08 79 1013.9
20260506213003 3 201 4.8 0.0 0.00 0.00 0.08 79 1013.8
20260506211501 3 205 6.4 0.0 0.00 0.00 0.08 80 1013.5
20260506210005 3 188 8.0 0.0 0.00 0.00 0.08 78 1013.5
20260506204501 3 228 12.9 0.0 0.00 0.00 0.08 79 1013.5
20260506203100 4 219 6.4 0.0 0.00 0.00 0.08 78 1013.5
20260506201603 3 221 4.8 0.0 0.00 0.00 0.08 76 1013.5
20260506200058 4 221 4.8 0.0 0.00 0.00 0.08 75 1013.5
20260506194558 4 221 4.8 0.0 0.00 0.00 0.08 75 1013.5
20260506193057 4 221 4.8 0.0 0.00 0.00 0.08 76 1013.4
20260506191557 4 222 3.2 0.0 0.00 0.00 0.08 75 1013.4
20260506190058 4 222 4.8 0.0 0.00 0.00 0.08 74 1013.4
20260506184607 5 222 4.8 0.0 0.00 0.00 0.08 73 1013.4
20260506183055 5 222 4.8 0.0 0.00 0.00 0.08 72 1013.4
20260506181555 5 229 8.0 0.0 0.00 0.00 0.08 73 1013.4
20260506180055 6 255 8.0 0.0 0.00 0.00 0.08 73 1013.3
20260506174554 6 223 8.0 0.0 0.00 0.00 0.08 72 1013.3
20260506173107 6 215 8.0 0.0 0.00 0.00 0.08 68 1013.3
20260506171557 6 263 4.8 0.0 0.00 0.00 0.08 68 1013.1
20260506170100 6 228 6.4 0.0 0.00 0.00 0.08 66 1013.2
20260506164611 6 246 6.4 0.0 0.00 0.00 0.08 65 1013.3
20260506163058 7 246 8.0 0.0 0.00 0.00 0.08 62 1013.4
20260506161552 7 239 8.0 0.0 0.00 0.00 0.08 65 1013.3
20260506160105 7 238 8.0 0.0 0.00 0.00 0.08 65 1013.2
20260506154553 7 291 11.3 0.0 0.00 0.00 0.08 66 1013.2
20260506153048 7 276 9.7 0.0 0.00 0.00 0.08 65 1013.1
20260506151547 7 301 12.9 0.0 0.00 0.00 0.08 63 1013.2
20260506150047 6 273 16.1 0.0 0.00 0.00 0.08 63 1013.3
20260506144547 6 278 16.1 0.0 0.00 0.00 0.08 66 1013.4
20260506143045 6 265 14.5 0.0 0.00 0.00 0.08 66 1013.4
20260506141604 6 315 14.5 0.0 0.00 0.00 0.08 66 1013.3
20260506140045 7 288 14.5 0.0 0.00 0.00 0.08 65 1013.3